Location: ???????
(41.1664°N, 22.8030°E)
Time: 21:46:09
(UTC+00:00)

Daily predictions for brighter satellites

Satellite Brightness Start Highest point End
(mag) Time Altitude Azimuth Time Altitude Azimuth Time Altitude Azimuth
Cosmos 2369 4.0 15:56:32 10° SSW 16:02:09 74° WNW 16:07:52 10° NNE
Cosmos 1980 Rocket 2.3 15:58:42 10° SSW 16:04:22 89° ESE 16:10:05 10° NNE
MOS 1-B 4.4 15:59:15 10° SSE 16:04:57 63° ENE 16:10:40 10° N
Cosmos 2263 Rocket 2.7 15:59:51 10° N 16:05:01 37° ENE 16:10:08 10° SE
Cosmos 1356 4.2 16:02:12 10° NNW 16:05:32 58° W 16:08:52 10° S
Cosmos 1821 Rocket 4.1 15:59:57 10° S 16:06:15 63° E 16:12:32 10° NNE
Cosmos 389 Rocket 2.6 16:04:37 10° SSW 16:07:59 76° W 16:11:24 10° N
Cosmos 1758 4.2 16:04:38 10° SSW 16:08:32 53° W 16:12:26 10° N
USA 215 4.2 16:02:47 10° NE 16:08:51 42° NNW 16:14:56 10° W
Genesis I 4.4 16:05:12 10° NW 16:09:11 50° WSW 16:13:07 10° SSE
Cosmos 371 Rocket 4.2 16:07:14 10° SSE 16:11:21 28° E 16:15:30 10° NE
Meteor 1-21 Rocket 4.4 16:05:57 10° N 16:11:46 60° ENE 16:17:36 10° SSE
SMAP 3.7 16:09:54 10° S 16:14:30 62° WSW 16:19:08 10° NNW
Cosmos 1953 2.3 16:10:34 10° S 16:14:34 67° E 16:18:37 10° NNE
Cosmos 494 Rocket 4.4 16:09:28 10° NNW 16:14:40 69° WSW 16:19:46 10° S
SKYMED 2 3.9 16:10:43 10° NNE 16:14:53 44° E 16:19:01 10° S
CZ-2D R/B 3.2 16:14:21 10° SSE 16:18:09 70° ENE 16:22:01 10° N
Cosmos 1125 Rocket 4.4 16:13:56 10° SW 16:19:05 54° WNW 16:24:12 10° N
YAOGAN 1 3.9 16:16:59 10° ESE 16:20:05 20° ENE 16:23:11 10° NNE
Cosmos 1455 Rocket 3.2 16:16:31 10° S 16:20:49 55° E 16:25:10 10° NNE
Cosmos 1269 Rocket 4.4 16:15:48 10° N 16:20:51 43° ENE 16:25:51 10° SE
Cosmos 1697 Rocket 4.3 16:15:47 10° SW 16:20:57 36° WNW 16:26:09 10° N
Cosmos 1934 Rocket 4.2 16:17:14 10° SSE 16:22:56 43° E 16:28:37 10° NNE
SL-8 R/B 3.9 16:18:16 10° WSW 16:23:03 73° NNW 16:27:49 10° ENE
CZ-2C R/B 2.9 16:17:51 10° NNE 16:23:17 48° E 16:28:34 10° S
H-2A R/B 3.5 16:19:57 10° ESE 16:23:31 25° ENE 16:26:59 10° NNE
H-2A R/B 3.5 16:25:03 10° NE 16:27:43 17° E 16:30:24 10° SE
NOSS 3-1 (A) 4.3 16:25:09 10° SSE 16:29:00 21° ESE 16:32:40 12° ENE
CZ-4 R/B 2.5 16:27:06 10° ESE 16:30:15 23° ENE 16:33:28 10° NNE
ATLAS 3B R/B 4.2 16:24:43 10° WSW 16:30:31 32° NW 16:36:35 10° NNE
Okean O Rocket 1.5 16:30:02 10° SSE 16:34:17 63° ENE 16:38:36 10° N
Cosmos 1908 3.9 16:30:50 10° SSW 16:34:39 57° W 16:38:29 10° N
Cosmos 1544 Rocket 3.9 16:30:35 10° SSE 16:34:48 44° E 16:39:03 10° NNE
NOSS 8 (F) 4.4 16:31:29 10° SSW 16:35:10 57° ESE 16:37:47 13° NE
Tiangong 1.1 16:32:31 10° WSW 16:35:42 70° SSE 16:37:44 20° E
Cosmos 1844 Rocket 4.2 16:34:54 10° N 16:38:24 17° NE 16:39:58 15° ENE
USA 267 3.6 16:35:21 10° SE 16:41:52 69° SW 16:48:25 10° NW
SL-08 RB Rocket 4.1 16:38:40 10° SE 16:42:53 40° ENE 16:47:11 10° N
Cosmos 2278 4.3 16:38:25 10° SW 16:43:59 59° WNW 16:49:39 10° NNE
OE (NEXTSAT) 4.4 16:40:38 10° SW 16:44:00 61° SSE 16:45:50 24° ENE
Cosmos 2123 Rocket 4.0 16:40:29 10° N 16:46:46 63° E 16:52:59 10° SSE
NOSS 2-3 (D) 3.6 16:45:36 10° SSW 16:49:27 48° ESE 16:52:36 17° NE
Meteor 1-4 Rocket 3.2 16:47:26 10° SSE 16:50:29 29° E 16:51:14 26° ENE
Okean-O 3.7 16:51:28 23° E 16:52:10 24° ENE 16:55:42 10° NNE
Feng Yun 1-1 Rocket 4.2 16:49:02 10° SSE 16:54:28 62° ENE 17:00:05 10° N
NOSS 3-1 (C) 3.1 16:49:36 10° SSW 16:54:40 67° ESE 17:00:33 10° NE
Okean 1-7 Rocket 3.5 16:51:02 10° N 16:55:27 69° E 16:59:52 10° SSE
IRAS Rocket 4.2 16:50:01 10° NNE 16:55:32 61° ESE 17:00:58 10° S
HJ-1C 4.2 16:58:02 30° NE 16:58:02 30° NE 17:00:30 10° N
SL-16 R/B 2.1 16:52:34 10° S 16:58:10 67° ESE 17:03:48 10° NNE
CZ-2C R/B 2.3 16:55:21 10° WSW 16:58:26 28° S 16:59:50 21° SE
Landsat 5 4.1 16:54:51 10° N 16:59:13 65° WNW 17:03:40 10° SSW
Cosmos 1602 Rocket 4.0 16:57:44 10° N 17:01:45 36° ENE 17:03:14 28° ESE
NOSS 2-3 (C) 3.3 16:58:06 10° SSW 17:02:04 71° ESE 17:05:07 19° NE
COSMO-SKYMED 1 3.4 16:58:44 10° N 17:02:58 53° WNW 17:07:11 10° SSW
Meteor 2-10 Rocket 3.8 17:00:11 10° SSE 17:05:35 50° E 17:10:50 10° NNE
ATLAS 5 CENTAUR R/B 3.5 17:05:45 10° W 17:08:57 24° NW 17:12:28 10° NNE
Cosmos 304 Rocket 3.7 17:06:39 10° S 17:11:21 62° ESE 17:16:06 10° NNE
Cosmos 1300 3.0 17:07:51 10° SSW 17:11:37 66° W 17:15:25 10° N
Cosmos 2322 Rocket 2.1 17:07:03 10° S 17:12:35 66° ESE 17:18:09 10° NNE
Cosmos 839 Rocket 4.3 17:07:32 10° NNW 17:14:59 56° NE 17:18:21 28° ESE
Delta 2 Rocket 4.1 17:16:36 10° SW 17:19:26 28° S 17:19:26 28° S
Lacrosse 4 Rocket 2.0 17:19:06 10° NNW 17:22:49 40° NE 17:22:49 40° NE
Cosmos 332 Rocket 3.7 17:18:54 10° SSW 17:23:48 84° ESE 17:28:42 10° NNE
Meteor 1-11 4.3 17:18:26 10° NNW 17:24:03 80° W 17:29:42 10° S
Cosmos 2360 Rocket 2.3 17:19:03 10° S 17:24:26 48° ESE 17:26:16 36° ENE
SWARM A 4.2 17:23:55 10° S 17:27:12 79° W 17:30:31 10° N
Cosmos 1605 Rocket 4.0 17:26:01 10° S 17:32:16 84° W 17:38:39 10° N
DMSP B5D2-2 4.0 17:28:07 10° NNE 17:33:24 88° ESE 17:38:37 10° SSW
H-2A R/B 4.2 17:28:56 10° SSW 17:33:32 29° W 17:38:13 10° NW
X-37B 1.9 17:31:33 10° WNW 17:33:45 36° NW 17:33:45 36° NW
Cosmos 614 Rocket 4.0 17:29:57 10° N 17:34:57 54° ENE 17:34:57 54° ENE
Cosmos 1626 Rocket 4.0 17:33:40 10° NNW 17:37:55 59° W 17:42:09 10° S
ARGOS 4.4 17:35:57 10° SSW 17:40:59 41° W 17:46:05 10° NNW
Cosmos 1447 Rocket 4.3 17:38:16 10° N 17:44:26 80° E 17:49:38 15° S
In-Cosmos 22 Rocket 3.9 17:39:32 10° N 17:44:53 82° E 17:46:38 44° SSE
Cosmos 1153 Rocket 4.4 17:41:29 10° S 17:47:51 81° E 17:54:17 10° N
MetOp-A 4.0 17:47:07 48° SSE 17:48:41 83° ENE 17:54:04 10° NNW
Cosmos 2263 Rocket 3.9 17:43:58 10° NW 17:48:48 31° WSW 17:53:35 10° SSW
CSL-04 Debris 4.0 17:49:52 60° SSE 17:50:52 81° ENE 17:56:18 10° NNW
YAOGAN 1 3.9 17:51:53 10° SSW 17:55:54 37° W 17:59:57 10° NNW
USA 229 DEB 3.5 17:50:18 10° SW 17:56:37 83° NW 17:59:47 34° NNE
USA 229 3.5 17:50:24 10° SW 17:56:43 84° NW 17:59:49 35° NNE
H-2A R/B 3.3 17:59:58 10° N 18:03:49 39° WNW 18:07:42 10° SW
CZ-4 R/B 3.4 18:01:41 10° SSW 18:05:05 27° W 18:08:35 10° NW
CSL-04 Rocket 3.6 18:05:17 76° SSW 18:05:43 84° WSW 18:11:19 10° NNW
Tiangong 4.3 18:09:23 10° W 18:09:58 14° W 18:09:58 14° W
NOSS 3-1 (A) 3.8 18:14:03 10° SW 18:19:11 54° NW 18:20:10 48° NNW
Cosmos 2251 Rocket 4.1 18:15:34 10° NNW 18:20:00 55° WNW 18:20:00 55° WNW
Cosmos 1844 Rocket 3.2 18:17:23 10° NNW 18:21:39 54° NW 18:21:39 54° NW
Milstar 3 Cent rocket 4.4 18:18:57 10° SW 18:25:17 34° SSE 18:25:17 34° SSE
Okean-O 4.4 18:29:03 30° W 18:29:03 30° W 18:32:26 10° NNW
Cosmos 44 4.4 18:25:08 10° SW 18:29:37 46° W 18:29:37 46° W
Cosmos 2322 Rocket 4.5 18:53:06 10° W 18:57:08 20° NW 19:00:51 11° N
Cosmos 2360 Rocket 4.1 19:04:00 10° WSW 19:08:09 26° WNW 19:08:09 26° WNW
